Year,Month,Day,Hour,Minute,Value (Times are PST for temperature in C)
2016,04,22,00,00,11.70
2016,04,22,00,01,11.70
2016,04,22,00,02,11.70
2016,04,22,00,03,11.70
2016,04,22,00,04,11.70
2016,04,22,00,05,11.60
2016,04,22,00,06,11.60
2016,04,22,00,07,11.60
2016,04,22,00,08,11.60
2016,04,22,00,09,11.60
2016,04,22,00,10,11.60
2016,04,22,00,11,11.60
2016,04,22,00,12,11.60
2016,04,22,00,13,11.60
2016,04,22,00,14,11.50
2016,04,22,00,15,11.50
2016,04,22,00,16,11.50
2016,04,22,00,17,11.50
2016,04,22,00,18,11.50
2016,04,22,00,19,11.50
2016,04,22,00,20,11.50
2016,04,22,00,21,11.50
2016,04,22,00,22,11.50
2016,04,22,00,23,11.50
2016,04,22,00,24,11.50
2016,04,22,00,25,11.40
2016,04,22,00,26,11.40
2016,04,22,00,27,11.40
2016,04,22,00,28,11.30
2016,04,22,00,29,11.30
2016,04,22,00,30,11.30
2016,04,22,00,31,11.30
2016,04,22,00,32,11.20
2016,04,22,00,33,11.20
2016,04,22,00,34,11.20
2016,04,22,00,35,11.20
2016,04,22,00,36,11.20
2016,04,22,00,37,11.20
2016,04,22,00,38,11.10
2016,04,22,00,39,11.10
2016,04,22,00,40,11.10
2016,04,22,00,41,11.10
2016,04,22,00,42,11.00
2016,04,22,00,43,11.00
2016,04,22,00,44,10.90
2016,04,22,00,45,10.90
2016,04,22,00,46,10.80
2016,04,22,00,47,10.80
2016,04,22,00,48,10.80
2016,04,22,00,49,10.70
2016,04,22,00,50,10.70
2016,04,22,00,51,10.60
2016,04,22,00,52,10.60
2016,04,22,00,53,10.60
2016,04,22,00,54,10.50
2016,04,22,00,55,10.50
2016,04,22,00,56,10.50
2016,04,22,00,57,10.40
2016,04,22,00,58,10.40
2016,04,22,00,59,10.40
2016,04,22,01,00,10.40
2016,04,22,01,01,10.40
2016,04,22,01,02,10.30
2016,04,22,01,03,10.30
2016,04,22,01,04,10.30
2016,04,22,01,05,10.30
2016,04,22,01,06,10.20
2016,04,22,01,07,10.20
2016,04,22,01,08,10.20
2016,04,22,01,09,10.20
2016,04,22,01,10,10.20
2016,04,22,01,11,10.20
2016,04,22,01,12,10.20
2016,04,22,01,13,10.10
2016,04,22,01,14,10.10
2016,04,22,01,15,10.10
2016,04,22,01,16,10.10
2016,04,22,01,17,10.10
2016,04,22,01,18,10.10
2016,04,22,01,19,10.10
2016,04,22,01,20,10.10
2016,04,22,01,21,10.10
2016,04,22,01,22,10.10
2016,04,22,01,23,10.00
2016,04,22,01,24,10.00
2016,04,22,01,25,9.90
2016,04,22,01,26,9.90
2016,04,22,01,27,9.90
2016,04,22,01,28,9.90
2016,04,22,01,29,9.90
2016,04,22,01,30,9.90
2016,04,22,01,31,9.90
2016,04,22,01,32,9.90
2016,04,22,01,33,9.90
2016,04,22,01,34,9.80
2016,04,22,01,35,9.80
2016,04,22,01,36,9.80
2016,04,22,01,37,9.80
2016,04,22,01,38,9.80
2016,04,22,01,39,9.80
2016,04,22,01,40,9.80
2016,04,22,01,41,9.80
2016,04,22,01,42,9.80
2016,04,22,01,43,9.80
2016,04,22,01,44,9.90
2016,04,22,01,45,9.90
2016,04,22,01,46,10.00
2016,04,22,01,47,10.10
2016,04,22,01,48,10.20
2016,04,22,01,49,10.30
2016,04,22,01,50,10.30
2016,04,22,01,51,10.30
2016,04,22,01,52,10.40
2016,04,22,01,53,10.40
2016,04,22,01,54,10.50
2016,04,22,01,55,10.50
2016,04,22,01,56,10.40
2016,04,22,01,57,10.40
2016,04,22,01,58,10.40
2016,04,22,01,59,10.40
2016,04,22,02,00,10.40
2016,04,22,02,01,10.40
2016,04,22,02,02,10.40
2016,04,22,02,03,10.40
2016,04,22,02,04,10.50
2016,04,22,02,05,10.50
2016,04,22,02,06,10.60
2016,04,22,02,07,10.70
2016,04,22,02,08,10.70
2016,04,22,02,09,10.80
2016,04,22,02,10,10.90
2016,04,22,02,11,10.90
2016,04,22,02,12,11.00
2016,04,22,02,13,11.00
2016,04,22,02,14,11.00
2016,04,22,02,15,11.00
2016,04,22,02,16,11.00
2016,04,22,02,17,11.00
2016,04,22,02,18,11.00
2016,04,22,02,19,10.90
2016,04,22,02,20,10.90
2016,04,22,02,21,10.90
2016,04,22,02,22,10.80
2016,04,22,02,23,10.80
2016,04,22,02,24,10.80
2016,04,22,02,25,10.70
2016,04,22,02,26,10.70
2016,04,22,02,27,10.60
2016,04,22,02,28,10.50
2016,04,22,02,29,10.50
2016,04,22,02,30,10.40
2016,04,22,02,31,10.40
2016,04,22,02,32,10.40
2016,04,22,02,33,10.40
2016,04,22,02,34,10.30
2016,04,22,02,35,10.30
2016,04,22,02,36,10.30
2016,04,22,02,37,10.20
2016,04,22,02,38,10.20
2016,04,22,02,39,10.10
2016,04,22,02,40,10.00
2016,04,22,02,41,9.90
2016,04,22,02,42,9.90
2016,04,22,02,43,9.90
2016,04,22,02,44,9.90
2016,04,22,02,45,10.00
2016,04,22,02,46,10.10
2016,04,22,02,47,10.20
2016,04,22,02,48,10.30
2016,04,22,02,49,10.40
2016,04,22,02,50,10.50
2016,04,22,02,51,10.50
2016,04,22,02,52,10.60
2016,04,22,02,53,10.70
2016,04,22,02,54,10.70
2016,04,22,02,55,10.70
2016,04,22,02,56,10.70
2016,04,22,02,57,10.70
2016,04,22,02,58,10.70
2016,04,22,02,59,10.70
2016,04,22,03,00,10.70
2016,04,22,03,01,10.80
2016,04,22,03,02,10.80
2016,04,22,03,03,10.80
2016,04,22,03,04,10.90
2016,04,22,03,05,10.90
2016,04,22,03,06,10.80
2016,04,22,03,07,10.80
2016,04,22,03,08,10.70
2016,04,22,03,09,10.70
2016,04,22,03,10,10.60
2016,04,22,03,11,10.50
2016,04,22,03,12,10.50
2016,04,22,03,13,10.40
2016,04,22,03,14,10.40
2016,04,22,03,15,10.30
2016,04,22,03,16,10.30
2016,04,22,03,17,10.30
2016,04,22,03,18,10.30
2016,04,22,03,19,10.30
2016,04,22,03,20,10.30
2016,04,22,03,21,10.30
2016,04,22,03,22,10.20
2016,04,22,03,23,10.20
2016,04,22,03,24,10.20
2016,04,22,03,25,10.10
2016,04,22,03,26,10.10
2016,04,22,03,27,10.00
2016,04,22,03,28,10.00
2016,04,22,03,29,9.90
2016,04,22,03,30,9.90
2016,04,22,03,31,9.90
2016,04,22,03,32,10.00
2016,04,22,03,33,10.00
2016,04,22,03,34,10.10
2016,04,22,03,35,10.10
2016,04,22,03,36,10.10
2016,04,22,03,37,10.20
2016,04,22,03,38,10.20
2016,04,22,03,39,10.20
2016,04,22,03,40,10.30
2016,04,22,03,41,10.30
2016,04,22,03,42,10.40
2016,04,22,03,43,10.40
2016,04,22,03,44,10.40
2016,04,22,03,45,10.40
2016,04,22,03,46,10.40
2016,04,22,03,47,10.50
2016,04,22,03,48,10.50
2016,04,22,03,49,10.50
2016,04,22,03,50,10.60
2016,04,22,03,51,10.60
2016,04,22,03,52,10.60
2016,04,22,03,53,10.60
2016,04,22,03,54,10.70
2016,04,22,03,55,10.70
2016,04,22,03,56,10.70
2016,04,22,03,57,10.80
2016,04,22,03,58,10.80
2016,04,22,03,59,10.80
2016,04,22,04,00,10.80
2016,04,22,04,01,10.80
2016,04,22,04,02,10.80
2016,04,22,04,03,10.90
2016,04,22,04,04,10.90
2016,04,22,04,05,10.90
2016,04,22,04,06,10.90
2016,04,22,04,07,10.90
2016,04,22,04,08,10.90
2016,04,22,04,09,10.90
2016,04,22,04,10,10.90
2016,04,22,04,11,10.90
2016,04,22,04,12,10.90
2016,04,22,04,13,10.90
2016,04,22,04,14,10.90
2016,04,22,04,15,10.80
2016,04,22,04,16,10.80
2016,04,22,04,17,10.70
2016,04,22,04,18,10.60
2016,04,22,04,19,10.50
2016,04,22,04,20,10.40
2016,04,22,04,21,10.30
2016,04,22,04,22,10.30
2016,04,22,04,23,10.20
2016,04,22,04,24,10.20
2016,04,22,04,25,10.20
2016,04,22,04,26,10.20
2016,04,22,04,27,10.20
2016,04,22,04,28,10.20
2016,04,22,04,29,10.20
2016,04,22,04,30,10.20
2016,04,22,04,31,10.10
2016,04,22,04,32,10.20
2016,04,22,04,33,10.10
2016,04,22,04,34,10.10
2016,04,22,04,35,10.00
2016,04,22,04,36,10.00
2016,04,22,04,37,9.90
2016,04,22,04,38,9.90
2016,04,22,04,39,9.90
2016,04,22,04,40,9.80
2016,04,22,04,41,9.80
2016,04,22,04,42,9.70
2016,04,22,04,43,9.70
2016,04,22,04,44,9.70
2016,04,22,04,45,9.60
2016,04,22,04,46,9.60
2016,04,22,04,47,9.50
2016,04,22,04,48,9.50
2016,04,22,04,49,9.50
2016,04,22,04,50,9.40
2016,04,22,04,51,9.40
2016,04,22,04,52,9.50
2016,04,22,04,53,9.50
2016,04,22,04,54,9.50
2016,04,22,04,55,9.50
2016,04,22,04,56,9.50
2016,04,22,04,57,9.50
2016,04,22,04,58,9.60
2016,04,22,04,59,9.70
2016,04,22,05,00,9.80
2016,04,22,05,01,9.90
2016,04,22,05,02,10.00
2016,04,22,05,03,10.10
2016,04,22,05,04,10.20
2016,04,22,05,05,10.40
2016,04,22,05,06,10.50
2016,04,22,05,07,10.60
2016,04,22,05,08,10.70
2016,04,22,05,09,10.80
2016,04,22,05,10,10.80
2016,04,22,05,11,10.90
2016,04,22,05,12,11.00
2016,04,22,05,13,11.10
2016,04,22,05,14,11.10
2016,04,22,05,15,11.20
2016,04,22,05,16,11.20
2016,04,22,05,17,11.30
2016,04,22,05,18,11.30
2016,04,22,05,19,11.30
2016,04,22,05,20,11.30
2016,04,22,05,21,11.30
2016,04,22,05,22,11.30
2016,04,22,05,23,11.30
2016,04,22,05,24,11.30
2016,04,22,05,25,11.40
2016,04,22,05,26,11.40
2016,04,22,05,27,11.40
2016,04,22,05,28,11.50
2016,04,22,05,29,11.60
2016,04,22,05,30,11.60
2016,04,22,05,31,11.70
2016,04,22,05,32,11.70
2016,04,22,05,33,11.70
2016,04,22,05,34,11.80
2016,04,22,05,35,11.80
2016,04,22,05,36,11.80
2016,04,22,05,37,11.80
2016,04,22,05,38,11.80
2016,04,22,05,39,11.80
2016,04,22,05,40,11.90
2016,04,22,05,41,11.90
2016,04,22,05,42,11.90
2016,04,22,05,43,11.90
2016,04,22,05,44,11.90
2016,04,22,05,45,11.90
2016,04,22,05,46,11.90
2016,04,22,05,47,11.90
2016,04,22,05,48,11.90
2016,04,22,05,49,11.90
2016,04,22,05,50,11.90
2016,04,22,05,51,11.90
2016,04,22,05,52,11.80
2016,04,22,05,53,11.80
2016,04,22,05,54,11.80
2016,04,22,05,55,11.80
2016,04,22,05,56,11.80
2016,04,22,05,57,11.80
2016,04,22,05,58,11.80
2016,04,22,05,59,11.80
2016,04,22,06,00,11.80
2016,04,22,06,01,11.80
2016,04,22,06,02,11.70
2016,04,22,06,03,11.70
2016,04,22,06,04,11.70
2016,04,22,06,05,11.70
2016,04,22,06,06,11.60
2016,04,22,06,07,11.60
2016,04,22,06,08,11.60
2016,04,22,06,09,11.60
2016,04,22,06,10,11.60
2016,04,22,06,11,11.60
2016,04,22,06,12,11.60
2016,04,22,06,13,11.70
2016,04,22,06,14,11.70
2016,04,22,06,15,11.70
2016,04,22,06,16,11.70
2016,04,22,06,17,11.70
2016,04,22,06,18,11.70
2016,04,22,06,19,11.70
2016,04,22,06,20,11.70
2016,04,22,06,21,11.70
2016,04,22,06,22,11.70
2016,04,22,06,23,11.70
2016,04,22,06,24,11.70
2016,04,22,06,25,11.60
2016,04,22,06,26,11.60
2016,04,22,06,27,11.60
2016,04,22,06,28,11.50
2016,04,22,06,29,11.50
2016,04,22,06,30,11.50
2016,04,22,06,31,11.40
2016,04,22,06,32,11.40
2016,04,22,06,33,11.40
2016,04,22,06,34,11.30
2016,04,22,06,35,11.30
2016,04,22,06,36,11.30
2016,04,22,06,37,11.30
2016,04,22,06,38,11.30
2016,04,22,06,39,11.30
2016,04,22,06,40,11.20
2016,04,22,06,41,11.20
2016,04,22,06,42,11.20
2016,04,22,06,43,11.20
2016,04,22,06,44,11.20
2016,04,22,06,45,11.30
2016,04,22,06,46,11.30
2016,04,22,06,47,11.30
2016,04,22,06,48,11.30
2016,04,22,06,49,11.20
2016,04,22,06,50,11.20
2016,04,22,06,51,11.20
2016,04,22,06,52,11.20
2016,04,22,06,53,11.20
2016,04,22,06,54,11.20
2016,04,22,06,55,11.20
2016,04,22,06,56,11.20
2016,04,22,06,57,11.20
2016,04,22,06,58,11.30
2016,04,22,06,59,11.30
2016,04,22,07,00,11.30
2016,04,22,07,01,11.30
2016,04,22,07,02,11.30
2016,04,22,07,03,11.30
2016,04,22,07,04,11.30
2016,04,22,07,05,11.40
2016,04,22,07,06,11.40
2016,04,22,07,07,11.40
2016,04,22,07,08,11.40
2016,04,22,07,09,11.40
2016,04,22,07,10,11.40
2016,04,22,07,11,11.50
2016,04,22,07,12,11.50
2016,04,22,07,13,11.50
2016,04,22,07,14,11.50
2016,04,22,07,15,11.50
2016,04,22,07,16,11.60
2016,04,22,07,17,11.60
2016,04,22,07,18,11.60
2016,04,22,07,19,11.60
2016,04,22,07,20,11.70
2016,04,22,07,21,11.70
2016,04,22,07,22,11.70
2016,04,22,07,23,11.70
2016,04,22,07,24,11.70
2016,04,22,07,25,11.70
2016,04,22,07,26,11.70
2016,04,22,07,27,11.70
2016,04,22,07,28,11.70
2016,04,22,07,29,11.80
2016,04,22,07,30,11.80
2016,04,22,07,31,11.90
2016,04,22,07,32,11.90
2016,04,22,07,33,12.00
2016,04,22,07,34,12.10
2016,04,22,07,35,12.10
2016,04,22,07,36,12.20
2016,04,22,07,37,12.20
2016,04,22,07,38,12.20
2016,04,22,07,39,12.30
2016,04,22,07,40,12.30
2016,04,22,07,41,12.30
2016,04,22,07,42,12.30
2016,04,22,07,43,12.30
2016,04,22,07,44,12.30
2016,04,22,07,45,12.30
2016,04,22,07,46,12.30
2016,04,22,07,47,12.40
2016,04,22,07,48,12.50
2016,04,22,07,49,12.60
2016,04,22,07,50,12.70
2016,04,22,07,51,12.80
2016,04,22,07,52,12.80
2016,04,22,07,53,12.90
2016,04,22,07,54,13.00
2016,04,22,07,55,13.00
2016,04,22,07,56,13.10
2016,04,22,07,57,13.10
2016,04,22,07,58,13.20
2016,04,22,07,59,13.30
2016,04,22,08,00,13.30
2016,04,22,08,01,13.40
2016,04,22,08,02,13.40
2016,04,22,08,03,13.40
2016,04,22,08,04,13.50
2016,04,22,08,05,13.50
2016,04,22,08,06,13.60
2016,04,22,08,07,13.60
2016,04,22,08,08,13.60
2016,04,22,08,09,13.60
2016,04,22,08,10,13.60
2016,04,22,08,11,13.70
2016,04,22,08,12,13.70
2016,04,22,08,13,13.70
2016,04,22,08,14,13.70
2016,04,22,08,15,13.70
2016,04,22,08,16,13.80
2016,04,22,08,17,13.80
2016,04,22,08,18,13.80
2016,04,22,08,19,13.80
2016,04,22,08,20,13.80
2016,04,22,08,21,13.90
2016,04,22,08,22,13.90
2016,04,22,08,23,13.90
2016,04,22,08,24,14.00
2016,04,22,08,25,14.00
2016,04,22,08,26,14.10
2016,04,22,08,27,14.10
2016,04,22,08,28,14.10
2016,04,22,08,29,14.20
2016,04,22,08,30,14.20
2016,04,22,08,31,14.20
2016,04,22,08,32,14.20
2016,04,22,08,33,14.30
2016,04,22,08,34,14.30
2016,04,22,08,35,14.30
2016,04,22,08,36,14.30
2016,04,22,08,37,14.40
2016,04,22,08,38,14.40
2016,04,22,08,39,14.40
2016,04,22,08,40,14.40
2016,04,22,08,41,14.40
2016,04,22,08,42,14.40
2016,04,22,08,43,14.40
2016,04,22,08,44,14.40
2016,04,22,08,45,14.40
2016,04,22,08,46,14.40
2016,04,22,08,47,14.40
2016,04,22,08,48,14.40
2016,04,22,08,49,14.40
2016,04,22,08,50,14.40
2016,04,22,08,51,14.40
2016,04,22,08,52,14.40
2016,04,22,08,53,14.40
2016,04,22,08,54,14.40
2016,04,22,08,55,14.40
2016,04,22,08,56,14.40
2016,04,22,08,57,14.30
2016,04,22,08,58,14.30
2016,04,22,08,59,14.30
2016,04,22,09,00,14.30
2016,04,22,09,01,14.30
2016,04,22,09,02,14.30
2016,04,22,09,03,14.30
2016,04,22,09,04,14.30
2016,04,22,09,05,14.30
2016,04,22,09,06,14.30
2016,04,22,09,07,14.30
2016,04,22,09,08,14.30
2016,04,22,09,09,14.30
2016,04,22,09,10,14.30
2016,04,22,09,11,14.30
2016,04,22,09,12,14.30
2016,04,22,09,13,14.30
2016,04,22,09,14,14.30
2016,04,22,09,15,14.30
2016,04,22,09,16,14.30
2016,04,22,09,17,14.30
2016,04,22,09,18,14.40
2016,04,22,09,19,14.40
2016,04,22,09,20,14.40
2016,04,22,09,21,14.40
2016,04,22,09,22,14.50
2016,04,22,09,23,14.50
2016,04,22,09,24,14.60
2016,04,22,09,25,14.60
2016,04,22,09,26,14.70
2016,04,22,09,27,14.80
2016,04,22,09,28,14.90
2016,04,22,09,29,15.00
2016,04,22,09,30,15.10
2016,04,22,09,31,15.20
2016,04,22,09,32,15.30
2016,04,22,09,33,15.40
2016,04,22,09,34,15.50
2016,04,22,09,35,15.60
2016,04,22,09,36,15.70
2016,04,22,09,37,15.80
2016,04,22,09,38,15.90
2016,04,22,09,39,15.90
2016,04,22,09,40,16.00
2016,04,22,09,41,16.00
2016,04,22,09,42,16.10
2016,04,22,09,43,16.10
2016,04,22,09,44,16.10
2016,04,22,09,45,16.20
2016,04,22,09,46,16.20
2016,04,22,09,47,16.20
2016,04,22,09,48,16.20
2016,04,22,09,49,16.10
2016,04,22,09,50,16.10
2016,04,22,09,51,16.00
2016,04,22,09,52,16.00
2016,04,22,09,53,16.00
2016,04,22,09,54,16.00
2016,04,22,09,55,16.10
2016,04,22,09,56,16.10
2016,04,22,09,57,16.10
2016,04,22,09,58,16.10
2016,04,22,09,59,16.10
2016,04,22,10,00,16.10
2016,04,22,10,01,16.20
2016,04,22,10,02,16.20
2016,04,22,10,03,16.20
2016,04,22,10,04,16.20
2016,04,22,10,05,16.30
2016,04,22,10,06,16.30
2016,04,22,10,07,16.40
2016,04,22,10,08,16.40
2016,04,22,10,09,16.40
2016,04,22,10,10,16.50
2016,04,22,10,11,16.50
2016,04,22,10,12,16.50
2016,04,22,10,13,16.40
2016,04,22,10,14,16.40
2016,04,22,10,15,16.40
2016,04,22,10,16,16.30
2016,04,22,10,17,16.30
2016,04,22,10,18,16.30
2016,04,22,10,19,16.30
2016,04,22,10,20,16.30
2016,04,22,10,21,16.30
2016,04,22,10,22,16.30
2016,04,22,10,23,16.30
2016,04,22,10,24,16.30
2016,04,22,10,25,16.20
2016,04,22,10,26,16.20
2016,04,22,10,27,16.20
2016,04,22,10,28,16.20
2016,04,22,10,29,16.30
2016,04,22,10,30,16.30
2016,04,22,10,31,16.30
2016,04,22,10,32,16.30
2016,04,22,10,33,16.30
2016,04,22,10,34,16.30
2016,04,22,10,35,16.40
2016,04,22,10,36,16.40
2016,04,22,10,37,16.50
2016,04,22,10,38,16.50
2016,04,22,10,39,16.60
2016,04,22,10,40,16.60
2016,04,22,10,41,16.60
2016,04,22,10,42,16.60
2016,04,22,10,43,16.60
2016,04,22,10,44,16.60
2016,04,22,10,45,16.50
2016,04,22,10,46,16.50
2016,04,22,10,47,16.40
2016,04,22,10,48,16.40
2016,04,22,10,49,16.40
2016,04,22,10,50,16.40
2016,04,22,10,51,16.40
2016,04,22,10,52,16.40
2016,04,22,10,53,16.40
2016,04,22,10,54,16.40
2016,04,22,10,55,16.40
2016,04,22,10,56,16.40
2016,04,22,10,57,16.40
2016,04,22,10,58,16.40
2016,04,22,10,59,16.40
2016,04,22,11,00,16.40
2016,04,22,11,01,16.40
2016,04,22,11,02,16.40
2016,04,22,11,03,16.40
2016,04,22,11,04,16.40
2016,04,22,11,05,16.40
2016,04,22,11,06,16.40
2016,04,22,11,07,16.40
2016,04,22,11,08,16.40
2016,04,22,11,09,16.30
2016,04,22,11,10,16.30
2016,04,22,11,11,16.30
2016,04,22,11,12,16.20
2016,04,22,11,13,16.20
2016,04,22,11,14,16.20
2016,04,22,11,15,16.20
2016,04,22,11,16,16.10
2016,04,22,11,17,16.10
2016,04,22,11,18,16.10
2016,04,22,11,19,16.20
2016,04,22,11,20,16.20
2016,04,22,11,21,16.20
2016,04,22,11,22,16.20
2016,04,22,11,23,16.20
2016,04,22,11,24,16.20
2016,04,22,11,25,16.10
2016,04,22,11,26,16.10
2016,04,22,11,27,16.10
2016,04,22,11,28,16.20
2016,04,22,11,29,16.20
2016,04,22,11,30,16.20
2016,04,22,11,31,16.30
2016,04,22,11,32,16.30
2016,04,22,11,33,16.30
2016,04,22,11,34,16.40
2016,04,22,11,35,16.40
2016,04,22,11,36,16.40
2016,04,22,11,37,16.40
2016,04,22,11,38,16.40
2016,04,22,11,39,16.40
2016,04,22,11,40,16.30
2016,04,22,11,41,16.30
2016,04,22,11,42,16.30
2016,04,22,11,43,16.30
2016,04,22,11,44,16.30
2016,04,22,11,45,16.30
2016,04,22,11,46,16.30
2016,04,22,11,47,16.30
2016,04,22,11,48,16.30
2016,04,22,11,49,16.30
2016,04,22,11,50,16.30
2016,04,22,11,51,16.30
2016,04,22,11,52,16.30
2016,04,22,11,53,16.30
2016,04,22,11,54,16.30
2016,04,22,11,55,16.30
2016,04,22,11,56,16.30
2016,04,22,11,57,16.20
2016,04,22,11,58,16.20
2016,04,22,11,59,16.20
2016,04,22,12,00,16.20
2016,04,22,12,01,16.20
2016,04,22,12,02,16.20
2016,04,22,12,03,16.20
2016,04,22,12,04,16.10
2016,04,22,12,05,16.10
2016,04,22,12,06,16.10
2016,04,22,12,07,16.10
2016,04,22,12,08,16.00
2016,04,22,12,09,16.00
2016,04,22,12,10,16.00
2016,04,22,12,11,15.90
2016,04,22,12,12,15.90
2016,04,22,12,13,15.80
2016,04,22,12,14,15.80
2016,04,22,12,15,15.80
2016,04,22,12,16,15.80
2016,04,22,12,17,15.80
2016,04,22,12,18,15.80
2016,04,22,12,19,15.80
2016,04,22,12,20,15.80
2016,04,22,12,21,15.80
2016,04,22,12,22,15.70
2016,04,22,12,23,15.70
2016,04,22,12,24,15.60
2016,04,22,12,25,15.50
2016,04,22,12,26,15.40
2016,04,22,12,27,15.30
2016,04,22,12,28,15.30
2016,04,22,12,29,15.30
2016,04,22,12,30,15.20
2016,04,22,12,31,15.20
2016,04,22,12,32,15.10
2016,04,22,12,33,15.10
2016,04,22,12,34,15.10
2016,04,22,12,35,15.00
2016,04,22,12,36,15.00
2016,04,22,12,37,15.00
2016,04,22,12,38,15.00
2016,04,22,12,39,14.90
2016,04,22,12,40,14.90
2016,04,22,12,41,14.90
2016,04,22,12,42,14.80
2016,04,22,12,43,14.80
2016,04,22,12,44,14.70
2016,04,22,12,45,14.70
2016,04,22,12,46,14.70
2016,04,22,12,47,14.70
2016,04,22,12,48,14.70
2016,04,22,12,49,14.70
2016,04,22,12,50,14.70
2016,04,22,12,51,14.70
2016,04,22,12,52,14.70
2016,04,22,12,53,14.70
2016,04,22,12,54,14.70
2016,04,22,12,55,14.70
2016,04,22,12,56,14.60
2016,04,22,12,57,14.50
2016,04,22,12,58,14.50
2016,04,22,12,59,14.50
2016,04,22,13,00,14.40
2016,04,22,13,01,14.40
2016,04,22,13,02,14.50
2016,04,22,13,03,14.40
2016,04,22,13,04,14.40
2016,04,22,13,05,14.40
2016,04,22,13,06,14.40
2016,04,22,13,07,14.40
2016,04,22,13,08,14.30
2016,04,22,13,09,14.40
2016,04,22,13,10,14.40
2016,04,22,13,11,14.40
2016,04,22,13,12,14.40
2016,04,22,13,13,14.30
2016,04,22,13,14,14.30
2016,04,22,13,15,14.30
2016,04,22,13,16,14.20
2016,04,22,13,17,14.20
2016,04,22,13,18,14.20
2016,04,22,13,19,14.20
2016,04,22,13,20,14.20
2016,04,22,13,21,14.20
2016,04,22,13,22,14.20
2016,04,22,13,23,14.20
2016,04,22,13,24,14.20
2016,04,22,13,25,14.20
2016,04,22,13,26,14.20
2016,04,22,13,27,14.20
2016,04,22,13,28,14.20
2016,04,22,13,29,14.20
2016,04,22,13,30,14.30
2016,04,22,13,31,14.30
2016,04,22,13,32,14.30
2016,04,22,13,33,14.30
2016,04,22,13,34,14.30
2016,04,22,13,35,14.30
2016,04,22,13,36,14.30
2016,04,22,13,37,14.30
2016,04,22,13,38,14.30
2016,04,22,13,39,14.30
2016,04,22,13,40,14.30
2016,04,22,13,41,14.40
2016,04,22,13,42,14.40
2016,04,22,13,43,14.40
2016,04,22,13,44,14.40
2016,04,22,13,45,14.40
2016,04,22,13,46,14.50
2016,04,22,13,47,14.50
2016,04,22,13,48,14.60
2016,04,22,13,49,14.60
2016,04,22,13,50,14.70
2016,04,22,13,51,14.70
2016,04,22,13,52,14.70
2016,04,22,13,53,14.80
2016,04,22,13,54,14.80
2016,04,22,13,55,14.80
2016,04,22,13,56,14.80
2016,04,22,13,57,14.90
2016,04,22,13,58,14.90
2016,04,22,13,59,14.90
2016,04,22,14,00,14.90
2016,04,22,14,01,14.90
2016,04,22,14,02,14.90
2016,04,22,14,03,14.90
2016,04,22,14,04,14.90
2016,04,22,14,05,14.90
2016,04,22,14,06,14.90
2016,04,22,14,07,14.90
2016,04,22,14,08,14.90
2016,04,22,14,09,14.90
2016,04,22,14,10,14.90
2016,04,22,14,11,14.90
2016,04,22,14,12,14.90
2016,04,22,14,13,14.90
2016,04,22,14,14,15.00
2016,04,22,14,15,15.00
2016,04,22,14,16,15.00
2016,04,22,14,17,15.00
2016,04,22,14,18,15.00
2016,04,22,14,19,15.00
2016,04,22,14,20,15.00
2016,04,22,14,21,15.00
2016,04,22,14,22,15.00
2016,04,22,14,23,15.00
2016,04,22,14,24,15.00
2016,04,22,14,25,15.00
2016,04,22,14,26,15.00
2016,04,22,14,27,15.00
2016,04,22,14,28,15.00
2016,04,22,14,29,15.00
2016,04,22,14,30,15.00
2016,04,22,14,31,15.00
2016,04,22,14,32,15.00
2016,04,22,14,33,15.00
2016,04,22,14,34,15.00
2016,04,22,14,35,15.00
2016,04,22,14,36,15.10
2016,04,22,14,37,15.10
2016,04,22,14,38,15.10
2016,04,22,14,39,15.10
2016,04,22,14,40,15.10
2016,04,22,14,41,15.00
2016,04,22,14,42,15.00
2016,04,22,14,43,14.90
2016,04,22,14,44,14.90
2016,04,22,14,45,14.80
2016,04,22,14,46,14.80
2016,04,22,14,47,14.70
2016,04,22,14,48,14.70
2016,04,22,14,49,14.60
2016,04,22,14,50,14.60
2016,04,22,14,51,14.50
2016,04,22,14,52,14.50
2016,04,22,14,53,14.40
2016,04,22,14,54,14.30
2016,04,22,14,55,14.20
2016,04,22,14,56,14.10
2016,04,22,14,57,14.00
2016,04,22,14,58,14.00
2016,04,22,14,59,13.90
2016,04,22,15,00,13.90
2016,04,22,15,01,13.90
2016,04,22,15,02,13.90
2016,04,22,15,03,13.80
2016,04,22,15,04,13.80
2016,04,22,15,05,13.80
2016,04,22,15,06,13.80
2016,04,22,15,07,13.80
2016,04,22,15,08,13.80
2016,04,22,15,09,13.70
2016,04,22,15,10,13.70
2016,04,22,15,11,13.60
2016,04,22,15,12,13.60
2016,04,22,15,13,13.60
2016,04,22,15,14,13.60
2016,04,22,15,15,13.50
2016,04,22,15,16,13.50
2016,04,22,15,17,13.50
2016,04,22,15,18,13.50
2016,04,22,15,19,13.50
2016,04,22,15,20,13.50
2016,04,22,15,21,13.50
2016,04,22,15,22,13.40
2016,04,22,15,23,13.40
2016,04,22,15,24,13.40
2016,04,22,15,25,13.40
2016,04,22,15,26,13.40
2016,04,22,15,27,13.40
2016,04,22,15,28,13.40
2016,04,22,15,29,13.40
2016,04,22,15,30,13.40
2016,04,22,15,31,13.40
2016,04,22,15,32,13.40
2016,04,22,15,33,13.40
2016,04,22,15,34,13.50
2016,04,22,15,35,13.50
2016,04,22,15,36,13.50
2016,04,22,15,37,13.50
2016,04,22,15,38,13.50
2016,04,22,15,39,13.50
2016,04,22,15,40,13.50
2016,04,22,15,41,13.60
2016,04,22,15,42,13.60
2016,04,22,15,43,13.60
2016,04,22,15,44,13.60
2016,04,22,15,45,13.60
2016,04,22,15,46,13.70
2016,04,22,15,47,13.70
2016,04,22,15,48,13.70
2016,04,22,15,49,13.70
2016,04,22,15,50,13.70
2016,04,22,15,51,13.70
2016,04,22,15,52,13.70
2016,04,22,15,53,13.80
2016,04,22,15,54,13.80
2016,04,22,15,55,13.80
2016,04,22,15,56,13.80
2016,04,22,15,57,13.80
2016,04,22,15,58,13.80
2016,04,22,15,59,13.90
2016,04,22,16,00,13.90
2016,04,22,16,01,13.90
2016,04,22,16,02,13.90
2016,04,22,16,03,14.00
2016,04,22,16,04,14.00
2016,04,22,16,05,14.00
2016,04,22,16,06,14.00
2016,04,22,16,07,14.00
2016,04,22,16,08,14.00
2016,04,22,16,09,14.00
2016,04,22,16,10,14.00
2016,04,22,16,11,14.00
2016,04,22,16,12,14.00
2016,04,22,16,13,13.90
2016,04,22,16,14,13.90
2016,04,22,16,15,13.90
2016,04,22,16,16,13.90
2016,04,22,16,17,13.90
2016,04,22,16,18,13.90
2016,04,22,16,19,13.90
2016,04,22,16,20,13.90
2016,04,22,16,21,13.90
2016,04,22,16,22,13.90
2016,04,22,16,23,13.90
2016,04,22,16,24,13.90
2016,04,22,16,25,13.90
2016,04,22,16,26,13.90
2016,04,22,16,27,13.90
2016,04,22,16,28,13.90
2016,04,22,16,29,13.90
2016,04,22,16,30,13.80
2016,04,22,16,31,13.80
2016,04,22,16,32,13.80
2016,04,22,16,33,13.80
2016,04,22,16,34,13.80
2016,04,22,16,35,13.80
2016,04,22,16,36,13.70
2016,04,22,16,37,13.70
2016,04,22,16,38,13.70
2016,04,22,16,39,13.70
2016,04,22,16,40,13.70
2016,04,22,16,41,13.70
2016,04,22,16,42,13.70
2016,04,22,16,43,13.80
2016,04,22,16,44,13.80
2016,04,22,16,45,13.80
2016,04,22,16,46,13.80
2016,04,22,16,47,13.80
2016,04,22,16,48,13.80
2016,04,22,16,49,13.80
2016,04,22,16,50,13.80
2016,04,22,16,51,13.80
2016,04,22,16,52,13.80
2016,04,22,16,53,13.80
2016,04,22,16,54,13.80
2016,04,22,16,55,13.80
2016,04,22,16,56,13.80
2016,04,22,16,57,13.80
2016,04,22,16,58,13.80
2016,04,22,16,59,13.80
2016,04,22,17,00,13.80
2016,04,22,17,01,13.80
2016,04,22,17,02,13.80
2016,04,22,17,03,13.80
2016,04,22,17,04,13.80
2016,04,22,17,05,13.70
2016,04,22,17,06,13.70
2016,04,22,17,07,13.70
2016,04,22,17,08,13.70
2016,04,22,17,09,13.80
2016,04,22,17,10,13.80
2016,04,22,17,11,13.80
2016,04,22,17,12,13.80
2016,04,22,17,13,13.80
2016,04,22,17,14,13.80
2016,04,22,17,15,13.80
2016,04,22,17,16,13.80
2016,04,22,17,17,13.80
2016,04,22,17,18,13.70
2016,04,22,17,19,13.70
2016,04,22,17,20,13.70
2016,04,22,17,21,13.70